Weather in Gammarth

Tunisia     36°54′26″N   10°19′01″E
temp.,
°C
wind,
m/s
gust,
m/s
humid.,
%
clouds,
%
prec.,
mm/h
press.,
hPa
HPBL,
m
19 april, mon
mon1901:00+10w612772 0.3 1019578
04:00+10w612815 0.3 1019562
07:00+11w511745 0.4 1019582
10:00+15nw810533 0.0 10201678
13:00+16nw895333 0.1 10201702
16:00+16nw89544 0.1 10191291
19:00+13nw47675 0.1 1020398
22:00+12nw227361 0.0 1020102
20 april, tue
tue2001:00+11ssw3371100 0.0 1019110
04:00+12sse247182 0.0 1018167
07:00+13sse467223 0.0 1018282
10:00+17s3455100 0.0 1017439
13:00+19ese1245100 0.0 1016719
16:00+19ne5448100 0.0 1014316
19:00+17se3569100 0.0 1015127
22:00+16sse3573100 0.0 1016149
21 april, wed
wed2101:00+15ese228228 0.0 101662
04:00+14sse22815 0.0 101530
07:00+15sse2376100 0.0 1015114
10:00+19se3559100 0.0 1015379
13:00+22ese454898 0.0 1014937
16:00+21se71054100 0.0 1012404
19:00+18sse697098 0.2 1013176
22:00+16sse7127893 0.0 1015268
22 april, thu
thu2201:00+16se61285100 0.0 1014343
04:00+16se71285100 0.0 1013462
07:00+16se7118599 0.0 1014619
10:00+18se7876100 0.0 1013484
13:00+18nne6774100 0.1 1013637
16:00+16ne1291100 3.1 1014123
19:00+15ese229128 5.0 1013111
22:00+14w47910 0.2 1015357
23 april, fri
fri2301:00+14w7128998 0.2 1013626
04:00+15nw10148593 0.0 1013781
07:00+15nw8109092 0.2 1014682
10:00+16nnw568367 0.6 1016631
13:00+17n888241 1.3 1016742
16:00+16n798494 0.9 1017729
19:00+15nnw568691 1.0 1018453
22:00+14nnw46916 0.1 1020347